Date String (YYYY-MM-DD hh:mm:ss) UTC,Instrument flags,absolute air pressure of the measurement (hPa),sample flow rate (lpm),inlet stack bypass flow (lpm),air temperature of the measurement (°C),ambient temperature measured by the external sensor (°C),aerosol sample conditioner tube jacket temperature (°C),OPC LED temperature (°C),internal box temperature (°C),relative humidity of the measurement (%),span deviation,mass concentration of particles derived from Lorenz-Mie calculation of OPC scattering (μg/m³),mass concentration of particles derived from Lorenz-Mie calculation of OPC scattering (μg/m³),mass concentration of particles derived from Lorenz-Mie calculation of OPC scattering (μg/m³)
DateTimeUTC,F1_M11,P_M11,Q1_M11,Q2_M11,T1_M11,T2_M11,T3_M11,T4_M11,T5_M11,U1_M11,ZSPAN_M11,X2_M11,X0_M11,X1_M11
2024-02-12 02:00:00,SystemResetWarning,0829.3,4.99,000.00,018.5,018.0,000.0,026.9,020.2,13.2,0000.0,0004.80,0011.98,0004.46
2024-02-12 02:01:00,SystemResetWarning,0829.3,4.99,000.00,018.5,018.0,000.0,026.9,020.2,13.2,0000.0,0004.78,0011.90,0004.46
2024-02-12 02:02:00,SystemResetWarning,0829.3,5.00,000.00,018.5,018.0,000.0,026.9,020.2,13.2,0000.0,0004.79,0011.97,0004.46
2024-02-12 02:03:00,SystemResetWarning,0829.3,5.01,000.00,018.4,018.0,000.0,026.9,020.2,13.2,0000.0,0004.81,0011.34,0004.47
2024-02-12 02:04:00,SystemResetWarning,0829.3,5.00,000.00,018.4,017.9,000.0,026.9,020.2,13.2,0000.0,0004.80,0010.93,0004.47
2024-02-12 02:05:00,SystemResetWarning,0829.3,4.99,000.00,018.4,017.9,000.0,026.9,020.2,13.2,0000.0,0004.80,0010.91,0004.47
2024-02-12 02:06:00,SystemResetWarning,0829.4,5.00,000.00,018.4,017.9,000.0,026.9,020.2,13.2,0000.0,0004.77,0010.08,0004.48
2024-02-12 02:07:00,SystemResetWarning,0829.4,5.00,000.00,018.4,017.9,000.0,026.9,020.1,13.1,0000.0,0004.75,0009.54,0004.47
2024-02-12 02:08:00,SystemResetWarning,0829.4,4.99,000.00,018.4,017.9,000.0,026.9,020.1,13.1,0000.0,0004.74,0009.11,0004.46
2024-02-12 02:09:00,SystemResetWarning,0829.4,5.00,000.00,018.4,017.9,000.0,026.9,020.1,13.1,0000.0,0004.72,0008.77,0004.45
2024-02-12 02:10:00,SystemResetWarning,0829.4,5.01,000.00,018.4,017.9,000.0,026.9,020.1,13.1,0000.0,0004.72,0008.08,0004.45
2024-02-12 02:11:00,SystemResetWarning,0829.3,5.01,000.00,018.4,017.9,000.0,026.9,020.1,13.0,0000.0,0004.69,0007.64,0004.43
2024-02-12 02:12:00,SystemResetWarning,0829.3,5.00,000.00,018.4,017.9,000.0,026.9,020.1,13.0,0000.0,0004.69,0007.65,0004.43
2024-02-12 02:13:00,SystemResetWarning,0829.3,5.00,000.00,018.4,017.9,000.0,026.9,020.1,12.9,0000.0,0004.69,0007.59,0004.44
2024-02-12 02:14:00,SystemResetWarning,0829.3,4.99,000.00,018.4,017.9,000.0,026.9,020.1,13.0,0000.0,0004.67,0007.49,0004.43
2024-02-12 02:15:00,SystemResetWarning,0829.3,4.99,000.00,018.4,017.8,000.0,026.9,020.1,12.9,0000.0,0004.70,0007.53,0004.44
2024-02-12 02:16:00,SystemResetWarning,0829.3,5.00,000.00,018.4,017.8,000.0,026.9,020.1,12.9,0000.0,0004.71,0007.55,0004.45
2024-02-12 02:17:00,SystemResetWarning,0829.3,5.00,000.00,018.4,017.8,000.0,026.8,020.1,12.9,0000.0,0004.70,0007.50,0004.45
2024-02-12 02:18:00,SystemResetWarning,0829.2,5.00,000.00,018.3,017.8,000.0,026.8,020.0,12.9,0000.0,0004.71,0007.48,0004.47
2024-02-12 02:19:00,SystemResetWarning,0829.3,5.00,000.00,018.3,017.8,000.0,026.8,020.0,12.8,0000.0,0004.74,0007.40,0004.49
2024-02-12 02:20:00,SystemResetWarning,0829.2,5.00,000.00,018.3,017.8,000.0,026.8,020.0,12.8,0000.0,0004.75,0007.25,0004.49
2024-02-12 02:21:00,SystemResetWarning,0829.3,5.00,000.00,018.3,017.8,000.0,026.8,020.0,12.8,0000.0,0004.75,0007.34,0004.49
2024-02-12 02:22:00,SystemResetWarning,0829.3,5.00,000.00,018.3,017.8,000.0,026.8,020.0,12.8,0000.0,0004.75,0007.52,0004.48
2024-02-12 02:23:00,SystemResetWarning,0829.3,5.00,000.00,018.3,017.8,000.0,026.8,020.0,12.8,0000.0,0004.74,0007.50,0004.48
2024-02-12 02:24:00,SystemResetWarning,0829.2,5.00,000.00,018.3,017.8,000.0,026.8,020.0,12.8,0000.0,0004.69,0007.42,0004.45
2024-02-12 02:25:00,SystemResetWarning,0829.3,5.00,000.00,018.3,017.8,000.0,026.8,020.0,12.9,0000.0,0004.67,0007.43,0004.44
2024-02-12 02:26:00,SystemResetWarning,0829.3,4.99,000.00,018.3,017.7,000.0,026.8,020.0,12.9,0000.0,0004.61,0007.32,0004.40
2024-02-12 02:27:00,SystemResetWarning,0829.3,5.00,000.00,018.3,017.7,000.0,026.8,020.0,12.8,0000.0,0004.60,0007.49,0004.38
2024-02-12 02:28:00,SystemResetWarning,0829.3,5.00,000.00,018.3,017.7,000.0,026.8,020.0,12.8,0000.0,0004.63,0007.66,0004.36
2024-02-12 02:29:00,SystemResetWarning,0829.3,5.00,000.00,018.3,017.7,000.0,026.8,020.0,12.8,0000.0,0004.59,0007.59,0004.33
2024-02-12 02:30:00,SystemResetWarning,0829.3,5.00,000.00,018.3,017.7,000.0,026.8,020.0,12.8,0000.0,0004.54,0007.52,0004.31
2024-02-12 02:31:00,SystemResetWarning,0829.3,5.00,000.00,018.3,017.7,000.0,026.8,020.0,12.8,0002.1,0004.52,0007.47,0004.29
2024-02-12 02:32:00,SystemResetWarning,0829.2,5.00,000.00,018.3,017.7,000.0,026.8,020.0,12.9,0003.9,0004.51,0007.41,0004.27
2024-02-12 02:33:00,SystemResetWarning,0829.2,5.00,000.00,018.2,017.7,000.0,026.8,020.0,12.8,0003.4,0004.47,0007.44,0004.24
2024-02-12 02:34:00,SystemResetWarning,0829.2,5.00,000.00,018.2,017.7,000.0,026.8,020.0,12.8,0001.1,0004.45,0007.53,0004.22
2024-02-12 02:35:00,SystemResetWarning,0829.2,5.00,000.00,018.2,017.6,000.0,026.8,020.0,12.8,0000.0,0004.43,0007.48,0004.19
2024-02-12 02:36:00,SystemResetWarning,0829.2,5.00,000.00,018.2,017.6,000.0,026.8,020.0,12.8,0000.0,0004.41,0007.40,0004.16
2024-02-12 02:37:00,SystemResetWarning,0829.2,5.00,000.00,018.2,017.6,000.0,026.8,020.0,12.8,0000.0,0004.41,0007.47,0004.14
2024-02-12 02:38:00,SystemResetWarning,0829.1,5.00,000.00,018.2,017.6,000.0,026.8,020.0,12.8,0000.0,0004.35,0007.20,0004.11
2024-02-12 02:39:00,SystemResetWarning,0829.1,5.00,000.00,018.2,017.6,000.0,026.8,020.0,12.7,0000.0,0004.30,0007.00,0004.08
2024-02-12 02:40:00,SystemResetWarning,0829.1,5.00,000.00,018.2,017.6,000.0,026.8,020.0,12.7,0000.0,0004.28,0007.02,0004.04
2024-02-12 02:41:00,SystemResetWarning,0829.1,5.00,000.00,018.2,017.6,000.0,026.8,020.0,12.6,0000.0,0004.27,0007.07,0004.02
2024-02-12 02:42:00,SystemResetWarning,0829.1,5.00,000.00,018.2,017.6,000.0,026.8,020.0,12.6,0000.0,0004.28,0007.19,0004.01
2024-02-12 02:43:00,SystemResetWarning,0829.2,5.00,000.00,018.2,017.6,000.0,026.8,020.0,12.5,0000.0,0004.27,0007.26,0004.00
2024-02-12 02:44:00,SystemResetWarning,0829.1,5.00,000.00,018.2,017.6,000.0,026.8,020.0,12.5,0000.0,0004.28,0006.96,0003.99
2024-02-12 02:45:00,SystemResetWarning,0829.1,5.00,000.00,018.2,017.6,000.0,026.8,020.0,12.6,0000.0,0004.29,0006.86,0003.98
2024-02-12 02:46:00,SystemResetWarning,0829.2,5.00,000.00,018.2,017.6,000.0,026.8,020.0,12.6,0000.0,0004.30,0006.99,0003.99
2024-02-12 02:47:00,SystemResetWarning,0829.1,5.01,000.00,018.2,017.6,000.0,026.8,020.0,12.6,0000.0,0004.29,0007.05,0003.99
2024-02-12 02:48:00,SystemResetWarning,0829.1,5.00,000.00,018.2,017.6,000.0,026.8,020.0,12.6,0000.0,0004.26,0006.91,0003.97
2024-02-12 02:49:00,SystemResetWarning,0829.1,4.99,000.00,018.2,017.6,000.0,026.8,020.0,12.6,0000.0,0004.26,0007.62,0003.97
2024-02-12 02:50:00,SystemResetWarning,0829.1,5.00,000.00,018.2,017.6,000.0,026.8,020.0,12.5,0000.0,0004.26,0007.67,0003.97
2024-02-12 02:51:00,SystemResetWarning,0829.1,5.00,000.00,018.2,017.5,000.0,026.8,020.0,12.4,0000.0,0004.25,0007.64,0003.97
2024-02-12 02:52:00,SystemResetWarning,0829.1,5.00,000.00,018.2,017.5,000.0,026.8,020.0,12.4,0000.0,0004.23,0007.62,0003.97
2024-02-12 02:53:00,SystemResetWarning,0829.1,5.00,000.00,018.2,017.5,000.0,026.8,020.0,12.4,0000.0,0004.18,0007.66,0003.95
2024-02-12 02:54:00,SystemResetWarning,0829.1,5.00,000.00,018.2,017.5,000.0,026.8,020.0,12.4,0000.0,0004.14,0007.53,0003.93
2024-02-12 02:55:00,SystemResetWarning,0829.1,5.00,000.00,018.2,017.5,000.0,026.8,020.0,12.4,0000.0,0004.11,0007.43,0003.93
2024-02-12 02:56:00,SystemResetWarning,0829.1,5.00,000.00,018.2,017.5,000.0,026.8,020.0,12.3,0000.0,0004.07,0007.32,0003.92
2024-02-12 02:57:00,SystemResetWarning,0829.1,5.00,000.00,018.2,017.5,000.0,026.8,020.0,12.2,0000.0,0004.05,0007.34,0003.90
2024-02-12 02:58:00,SystemResetWarning,0829.1,5.00,000.00,018.2,017.5,000.0,026.8,020.0,12.2,0000.0,0004.04,0007.55,0003.89
2024-02-12 02:59:00,SystemResetWarning,0829.1,5.01,000.00,018.2,017.5,000.0,026.8,020.0,12.1,0000.0,0004.04,0007.63,0003.88
